Timeline UpdatesTrip UpdatesNews PostsPvt PostsTravel TipsAdmin PostsConv PostsFollowed PostsChat RequestsBlog PostsPNR Posts

Disclaimer
Search
 
 
Thu Apr 24, 2014 01:41:29 ISTHomeTrainsΣChainsAtlasPNRForumGalleryNewsFAQTripsMembersLoginFeedback
No Recent News for this Train
Other Trains in the News **new
Latest...
.
Wed Nov 13, 2013 (09:00PM)
⇐ Return Journey: Train# 12507

12508/Guwahati - Trivandrum Express

Nov 12 2013 (3:24PM)
Change Departure Station:
Change Arrival Station:
Post a Train Travel TipPost a Train Travel Tip **new
Post a Comment/Question/Picture/VideoPost a Comment/Question/Picture/Video
Pantry/Catering
✓ Pantry Car Avbl
✓ Catering Avbl
Loco/Rake Reversals
ERS/Ernakulam Junction (South) (6); VSKP/Visakhapatnam Junction (8); MAS/Chennai Central (12); HWH/Kolkata Howrah Junction (23);
RSA - Rake Sharing
12508/12507/12516/12515 has RSA
Rake/Coach Composition
2A- 1(A-1); 3A- 4(B-1, B-2, B-3, B-4); PC- 1; SL- 12(S-1#S-12); GEN- 2; SLR- 2;; Entry# 158513 ; Author: RANGARAJAN
Loco
GHY-HWH: WDM 3D HWH HWH-VSKP: WAP 4 SRC VSKP-MAS: WAM 4 AJJ/VSKP/BZA...
Read more...
, WAP 4 ED/RPM MAS-TVC: WAP 4 ED/RPM
News    PNR    Forum    Time-Table    Availability    Fare Chart    Map    Arr/Dep History    Trips    Gallery    ΣChains    X/O    Timeline    
Travel Time: 59h 45m    42 halts    Distance: 3336 km    Avg Speed: 55 km/hr
Type: SuperFast
Zone: NFR/Northeast Frontier
Departs @ 06:30 (Avg 1m late)
Platform# 6
     F 
Guwahati/GHY 
Arrives @ 18:15 +2 nights
Platform# 1
S      
Ernakulam Junction (South)/ERS 

42 halts. 593 intermediate Stations between Guwahati and Ernakulam Junction (South)

Show ALL intermediate Stations  Show Old Time-Table

#CodeStation NameX/OArrivesAvgDepartsAvgHaltPFDay#KmSpeedElevZoneAddress
1GHY»Guwahati (7)»  -06:30+1610.03260mNFRGuwahati, Assam
2KYQKamakhya Junction (4)X  06:43-106:44+01m--17.06455mNFRDist - KAMRUP, Assam
3RNYRangiya Junction (5)X  07:22+1607:27+245m--147.67258mNFRRangia, Assam
4BPRDBarpeta Road  08:21+3208:22+331m--1112.53649mNFRHowli, Assam
5NBQNew Bongaigaon Junction (4)  09:35+009:40+15m--1156.66258mNFR783381., Assam
6KOJKokrajhar (3)  10:07+2110:08+221m--1184.48646mNFR03661-270618, Assam
7NOQNew Alipurduar (2)X  11:03+3011:05+302m--1263.34548mNFRAlipurduar-736121 03564-255207, West Bengal
8NCBNew Cooch Behar Junction (5)  11:30+2911:32+292m--1281.97547mNFRPIN-736101. ., West Bengal
9DQGDhupguri (2)  12:20+3212:22+322m--1342.13675mNFRDist - Jalpaiguri, West Bengal
10NJPNew Jalpaiguri Junction (8)X  14:10+3114:25+3115m31407.476114mNFRCity-Siliguri . Dist-Jalpaiguri, West Bengal
11KNEKishanGanj (3)  15:34+4315:36+432m--1494.85152mNFRKishanganj, Bihar
12MLDTMalda Town (5)  18:30+3118:45+3215m--1642.95530mERDist - Malda, West Bengal
13PKRPakur (2)X  20:03+3420:04+361m21714.14937mERDist:- Pakur, Jharkhand
14RPHRampurhat (3)  21:08+4221:10+432m11766.77841mERDIST - Birbhum, West Bengal
15BHPBolpur Shantiniketan (3)X  21:57+1:0222:02+595m--1827.45459mERBolpur, West Bengal
16HWHKolkata Howrah Junction (23)00:45+3401:05+3420m102973.66910mERHowrah 711101, West Bengal
17KGPKharagpur Junction (10)  02:45+5803:00+5815m321088.68242mSERKharagpur, West Bengal
18BLSBalasore (4)  04:25+5404:27+542m--21204.76719mSERBalasore, Odisha
19BHCBhadrak (4)X  05:23+5805:25+582m--21267.18223mECoRBhadrak, Odisha
20JJKRJajpur Keonjhar Road (4)X  05:57+1:0105:58+1:021m--21310.87636mECoRJajpur, Odisha
21CTCCuttack (5)X  06:55+1:0707:00+1:125m--21382.83728mECoRCuttack ph.no 0671-2610460, Odisha
22BBSBhubaneswar (4)X  07:45+1:1607:50+1:165m421410.72840mECoRBhubaneshwar ph.no. 0674-2532233, Odisha
23KURKhurda Road Junction (7)X  08:30+5908:45+1:0115m--21429.67625mECoRKhordha, Odisha
24BALUBalugaon (3)X  09:41+1:0309:42+1:041m--21500.79511mECoR752030, Odisha
25BAMBrahmapur (3)  10:30+1:0910:35+1:085m--21576.75227mECoRBerhampur, Odisha
26PSAPalasa (3)  12:00+5012:02+512m--21651.17531mECoRKasibugga, Andhra Pradesh
27CHESrikakulam Road (4)  13:00+5313:02+542m--21724.07234mECoRsrikakulam road ph .no. 08942-287222, Andhra Pradesh
28VZMVizianagaram Junction (5)X  14:00+5514:05+545m--21793.64363mECoRVizianagaram ph.no 08922-225510, Andhra Pradesh
29VSKPVisakhapatnam Junction (8)X15:30+4115:50+4420m321854.76611mECoRVishakhapatnam 530001, Andhra Pradesh
30RJYRajahmundry (3)  18:53+5518:55+562m122054.55423mSCRRajahmundry ph.no. 0883-2420541, Andhra Pradesh
31BZAVijayawada Junction (10)X  21:40+5321:55+5315m--22203.86824mSCRVijayawada 520001, Andhra Pradesh
32MASChennai Central (12)04:15+1:0504:40+1:0425m632634.7569mSRChennai 600003, Tamil Nadu
33AJJArakkonam Junction (8)  05:53+1:0305:55+1:042m--32703.46691mSRArakkonam, Tamil Nadu
34KPDKatpadi Junction (5)X  06:50+5506:55+545m132764.156213mSRVellore 632007. Phone No: 0416-2642628, Tamil Nadu
35JTJJolarpettai Junction (5)  08:25+4208:30+435m--32848.090405mSRJolarpettai jtn. Ph No.04179-241221, Tamil Nadu
36SASalem Junction (6)  09:50+1:1009:55+1:105m--32968.249283mSRSalem, Tamil Nadu
37EDErode Junction (4)  11:10+5411:20+1:0110m233029.970175mSRErode ph.no: 0424-2256111, Tamil Nadu
38TUPTiruppur (2)  12:03+5812:05+582m133079.943305mSRTiruppur. Ph:0421-2200450, Tamil Nadu
39CBECoimbatore Main Junction (6)X  13:15+4113:20+435m--33130.439411mSRCoimbatore 641001, Tamil Nadu
40PGTPalakkad Junction (4)  14:45+3214:50+345m--33186.25284mSRPalghat Tel: 0491 2555231, Kerala
41TCRThrissur (4)O  16:17+2816:20+293m133261.7706mSRThrissur Tel: 0487 2423150, Kerala
42AWYAluva (3)X  17:07+3717:10+363m133316.32912mSRPh: 0484-2624141, Kerala
43ERNErnakulam Town (North) (2)  17:45+2617:50+355m--33333.169mSRTel: 0484 2395198, Kerala
44ERS•Ernakulam Junction (South) (6)•18:15-18:16-1m133335.7823mSRErnakulam 682016, Kerala
45KTYMKottayam (3)X  19:00+4119:05+425m--33395.65515mSRTel: 0481 2563535, Kerala
46TRVLTiruvalla (2)X  19:33+4619:35+462m--33421.34227mSRPh: 0469-2601314, Kerala
47CNGRChengannur (3)  19:48+5419:50+542m--33430.4586mSRPh: 0479-2452340, Kerala
48MVLKMavelikara (3)X  20:03+4620:05+462m--33442.93513mSRMavelikkara Ph: 0479-2302249, Kerala
49KYJKayamkulam Junction (5)  20:18+4320:20+432m--33450.65411mSRAlappuzha Ph;0479-2442042, Kerala
50QLNKollam Junction (6)  21:05+3821:10+375m--33491.44816mSRKollam 0474-2746194, Kerala
51TVCTrivandrum Central (5)  22:30+24---33556.0-12mSRPh: 0471-2321622, Kerala
Scroll to Top
Scroll to Bottom